#timestamp,LO_Frequency,Hit,StdDev 
1677020415.0,286046998.7,N
1677020446.0,286046999.6,E
1677020455.0,286046999.2,N
1677020455.9,286046999.2,P
1677020475.8,286046996.6,P
1677020495.6,286046998.7,N
1677020515.4,286047002.3,N
1677020535.3,286047000.9,N
1677020555.1,286046998.6,N
1677020575.8,286046997.3,N
1677020595.7,286046997.2,N
1677020615.5,286046996.6,N
1677020635.4,286046997.2,N
1677020655.2,286046995.4,N
1677020675.0,286046998.9,N
1677020675.9,286046998.9,N
1677020695.8,286046996.6,N
1677020715.6,286046997.1,N
1677020735.4,286046998.4,N
1677020755.3,286046996.7,N
1677020775.1,286046997.1,N
1677020795.9,286046996.9,N
1677020815.7,286046999.0,N
1677020835.5,286046998.2,N
1677020855.4,286046997.1,N
1677020875.2,286046996.9,N
1677020895.0,286046998.9,N
1677020895.9,286046998.9,N
1677020915.8,286047002.3,N
1677020935.6,286047000.6,N
1677020955.5,286046996.7,N
1677020975.3,286046997.1,N
1677020995.1,286046996.5,N
1677021015.9,286046997.2,N
1677021035.7,286047000.9,N
1677021055.6,286047002.4,N
1677021075.4,286047002.3,N
1677021095.2,286047004.3,N
1677021115.1,286047000.5,N
1677021116.0,286047000.5,N
1677021135.8,286047000.2,N
1677021155.6,286047000.9,N
1677021175.5,286047000.4,N
1677021195.3,286046999.8,N
1677021215.2,286047002.3,N
1677021235.0,286047000.4,N
1677021235.9,286047000.4,N
1677021255.7,286047000.3,N
1677021275.6,286046998.7,N
1677021295.4,286046999.3,N
1677021315.3,286046995.4,N
1677021335.1,286046997.9,N
1677021336.0,286046997.9,N
1677021355.8,286046998.1,N
1677021375.7,286047000.8,N
1677021395.5,286046998.2,N
1677021415.4,286046996.8,N
1677021435.2,286046998.6,N
1677021455.0,286047001.2,N
1677021455.9,286047001.2,N
1677021475.8,286047000.9,N
1677021495.6,286047002.8,N
1677021515.4,286047006.0,N
1677021535.3,286047001.9,N
1677021555.1,286047002.3,N
1677021575.9,286047000.8,N
1677021595.7,286047001.0,N
1677021615.5,286046995.8,N
1677021635.4,286046997.4,N
1677021655.2,286046995.3,N
1677021675.0,286046995.3,N
1677021676.0,286046995.3,N
1677021695.8,286046995.5,N
1677021715.6,286046994.4,N
1677021735.5,286046992.6,N
1677021755.3,286046996.0,N
1677021775.1,286046993.7,N
1677021795.9,286046997.7,N
1677021815.7,286047000.7,N
1677021835.6,286047001.0,N
1677021855.4,286047000.5,N
1677021875.2,286046999.9,N
1677021895.1,286047000.7,N
1677021896.0,286047000.7,N
1677021915.8,286046998.9,N
1677021935.6,286047002.7,N
1677021955.5,286047000.4,N
1677021975.3,286047002.8,N
1677021995.2,286047000.9,N
1677022015.9,286047001.3,N
1677022035.7,286047001.8,N
1677022055.6,286047001.6,N
1677022075.4,286047002.7,N
1677022095.2,286046999.3,N
1677022115.1,286046998.4,N
1677022116.0,286046998.4,N
1677022135.8,286046998.2,N
1677022155.7,286046998.6,N
1677022175.5,286046997.0,N
1677022195.3,286046999.9,N
1677022215.2,286046998.5,N
1677022235.0,286047001.1,N
1677022235.9,286047001.1,N
1677022255.8,286046998.5,N
1677022275.6,286046998.2,N
1677022295.4,286046999.3,N
1677022315.3,286046999.5,N
1677022335.1,286047001.1,N
1677022355.8,286046999.1,N
1677022375.7,286047001.1,N
1677022395.5,286047000.3,N
1677022415.4,286046996.6,N
1677022435.2,286046997.4,N
1677022455.0,286046996.5,N
1677022455.9,286046996.5,N
1677022475.8,286046997.6,N
1677022495.6,286046992.1,Y
1677022515.4,286046996.3,P
1677022535.3,286046996.7,N
1677022555.1,286046996.9,N
1677022575.9,286046996.5,N
1677022595.7,286046997.1,N
1677022615.5,286046997.8,N
1677022635.4,286046997.8,N
1677022655.2,286046999.3,N
1677022675.0,286046999.3,N
1677022675.9,286046999.3,N
1677022695.8,286046997.1,N
1677022715.6,286046997.8,N
1677022735.5,286046997.0,N
1677022755.3,286046998.6,N
1677022775.1,286046999.9,N
1677022795.9,286046996.6,N
1677022815.7,286046998.2,N
1677022835.5,286046999.8,N
1677022855.4,286047000.2,N
1677022875.2,286046999.3,N
1677022895.1,286047000.3,N
1677022896.0,286047000.3,N
1677022915.8,286046997.1,N
1677022935.6,286046999.2,N
1677022955.5,286046999.6,N
1677022975.3,286046999.2,N
1677022995.1,286047000.0,N
1677023015.9,286047002.7,N
1677023035.7,286047000.2,N
1677023055.6,286047000.2,N
1677023075.4,286046998.7,N
1677023095.2,286046998.1,N
1677023115.1,286046998.5,N
1677023116.0,286046998.5,N
1677023135.8,286047002.4,N
1677023155.7,286046999.9,N
1677023175.5,286046999.8,N
1677023195.3,286047001.0,N
1677023215.2,286047002.7,N
1677023235.9,286047000.2,N
1677023255.7,286047004.4,N
1677023275.6,286047002.0,N
1677023295.4,286047001.4,N
1677023315.3,286047001.9,N
1677023335.1,286047000.1,N
1677023355.8,286047002.5,N
1677023375.7,286047000.0,N
1677023395.5,286046998.9,N
1677023415.4,286046998.6,N
1677023435.2,286047001.4,N
1677023455.0,286047000.7,N
1677023455.9,286047000.7,N
1677023475.8,286047001.1,N
1677023495.6,286046995.1,Y
1677023515.5,286046995.7,P
1677023535.3,286046993.4,N
1677023555.1,286046995.9,N
1677023575.9,286046995.1,N
1677023595.7,286046996.0,N
1677023615.5,286046998.0,N
1677023635.4,286046995.0,N
1677023655.2,286046993.8,Y
1677023675.1,286046998.1,P
1677023676.0,286046998.1,N
1677023695.8,286047000.2,N
1677023715.6,286047003.7,N
1677023735.5,286047000.7,N
1677023755.3,286047000.8,N
1677023775.1,286046998.8,N
1677023795.9,286046998.9,N
1677023815.7,286046996.9,N
1677023835.6,286047000.9,N
1677023855.4,286047001.6,N
1677023875.2,286047001.4,N
1677023895.1,286047004.2,N
1677023896.0,286047004.2,N
1677023915.8,286047001.8,N
1677023935.7,286047004.2,N
1677023955.5,286047000.1,N
1677023975.3,286047002.5,N
1677023995.2,286047001.5,N
